�������r�C�����j�^�v���󋵏��
Date,Time,5�C6���@���p�r�C��,����,����(m/s)
2022/03/30,00:00,3.8,��쐼,2.6
2022/03/30,00:10,4.0,�쐼,3.2
2022/03/30,00:20,4.1,�쐼,3.2
2022/03/30,00:30,4.0,�쐼,2.0
2022/03/30,00:40,3.8,��,0.8
2022/03/30,00:50,3.9,-,CALM
2022/03/30,01:00,3.8,��,0.9
2022/03/30,01:10,4.0,��쓌,1.2
2022/03/30,01:20,4.0,��쓌,2.6
2022/03/30,01:30,3.9,��,5.3
2022/03/30,01:40,3.8,��쓌,5.1
2022/03/30,01:50,4.0,��,4.0
2022/03/30,02:00,3.8,��쐼,3.2
2022/03/30,02:10,4.0,��,3.3
2022/03/30,02:20,3.8,��,4.3
2022/03/30,02:30,3.8,��쓌,4.2
2022/03/30,02:40,4.0,��,4.7
2022/03/30,02:50,3.9,��,4.5
2022/03/30,03:00,3.9,��,3.7
2022/03/30,03:10,4.0,��,4.1
2022/03/30,03:20,4.1,��쐼,4.2
2022/03/30,03:30,3.9,��쐼,4.3
2022/03/30,03:40,4.0,��쐼,4.4
2022/03/30,03:50,3.9,��쐼,4.5
2022/03/30,04:00,4.0,��쐼,3.9
2022/03/30,04:10,3.9,��쐼,3.7
2022/03/30,04:20,3.9,��쐼,4.0
2022/03/30,04:30,3.9,��쐼,3.4
2022/03/30,04:40,3.8,��쐼,3.7
2022/03/30,04:50,4.0,��쐼,5.1
2022/03/30,05:00,3.9,��쐼,7.2
2022/03/30,05:10,4.1,��쐼,8.8
2022/03/30,05:20,4.0,��쐼,9.1
2022/03/30,05:30,3.8,��쐼,7.0
2022/03/30,05:40,4.0,��쐼,7.0
2022/03/30,05:50,4.0,��쐼,6.7
2022/03/30,06:00,4.0,��쐼,6.8
2022/03/30,06:10,4.1,��쐼,7.2
2022/03/30,06:20,4.0,��쐼,7.4
2022/03/30,06:30,4.0,��쐼,6.5
2022/03/30,06:40,4.0,��쐼,7.0
2022/03/30,06:50,4.2,��쐼,7.1
2022/03/30,07:00,4.0,��쐼,7.5
2022/03/30,07:10,3.9,��쐼,7.9
2022/03/30,07:20,4.0,��쐼,7.2
2022/03/30,07:30,3.9,�쐼,6.8
2022/03/30,07:40,4.1,�쐼,5.6
2022/03/30,07:50,4.1,�쐼,5.4
2022/03/30,08:00,4.0,��쐼,7.0
2022/03/30,08:10,4.0,��쐼,7.1
2022/03/30,08:20,3.9,��쐼,6.9
2022/03/30,08:30,4.0,��쐼,5.5
2022/03/30,08:40,3.9,��쐼,6.2
2022/03/30,08:50,3.9,�쐼,4.9
2022/03/30,09:00,3.9,��쐼,5.9
2022/03/30,09:10,3.9,��쐼,7.2
2022/03/30,09:20,4.1,�쐼,6.2
2022/03/30,09:30,3.7,�쐼,5.5
2022/03/30,09:40,4.0,��쐼,6.6
2022/03/30,09:50,3.9,�쐼,6.9
2022/03/30,10:00,3.8,��쐼,7.8
2022/03/30,10:10,4.0,�쐼,7.3
2022/03/30,10:20,4.0,��쐼,7.3
2022/03/30,10:30,4.0,��쐼,5.9
2022/03/30,10:40,4.0,��,7.4
2022/03/30,10:50,4.0,��,8.1
2022/03/30,11:00,4.1,��,9.9
2022/03/30,11:10,4.0,��,10.5
2022/03/30,11:20,3.9,��,9.2
2022/03/30,11:30,3.9,��,9.5
2022/03/30,11:40,4.0,��,8.3
2022/03/30,11:50,4.0,��,9.8
2022/03/30,12:00,3.7,��,11.3
2022/03/30,12:10,3.8,��쓌,11.3
2022/03/30,12:20,3.8,��,11.8
2022/03/30,12:30,4.1,��,12.7
2022/03/30,12:40,4.1,��,13.9
2022/03/30,12:50,3.9,��,11.3
2022/03/30,13:00,3.9,��,11.3
2022/03/30,13:10,4.0,��,9.3
2022/03/30,13:20,3.9,��,9.7
2022/03/30,13:30,3.9,��,9.3
2022/03/30,13:40,4.0,��,8.9
2022/03/30,13:50,3.8,��,9.3
2022/03/30,14:00,4.1,��,10.7
2022/03/30,14:10,4.0,��,10.0
2022/03/30,14:20,3.9,��,8.4
2022/03/30,14:30,4.0,��,9.4
2022/03/30,14:40,4.0,��,8.6
2022/03/30,14:50,4.0,��쓌,8.9
2022/03/30,15:00,3.9,��,8.9
2022/03/30,15:10,3.9,��,9.3
2022/03/30,15:20,4.0,��,9.2
2022/03/30,15:30,4.1,��,8.8
2022/03/30,15:40,4.1,��,9.1
2022/03/30,15:50,3.9,��,9.2
2022/03/30,16:00,3.9,��,9.7
2022/03/30,16:10,4.0,��,9.5
2022/03/30,16:20,3.9,��,8.6
2022/03/30,16:30,4.1,��,8.0
2022/03/30,16:40,3.9,��,8.8
2022/03/30,16:50,4.1,��,10.9
2022/03/30,17:00,4.0,��,11.3
2022/03/30,17:10,4.0,��쐼,8.3
2022/03/30,17:20,4.0,��,11.1
2022/03/30,17:30,4.0,��,9.6
2022/03/30,17:40,4.0,��,10.0
2022/03/30,17:50,3.9,��,9.6
2022/03/30,18:00,3.8,��,9.7
2022/03/30,18:10,3.9,��,9.4
2022/03/30,18:20,4.0,��,9.2
2022/03/30,18:30,3.8,��쐼,8.5
2022/03/30,18:40,3.9,��쐼,9.9
2022/03/30,18:50,3.9,��쐼,10.2
2022/03/30,19:00,3.8,��쐼,9.7
2022/03/30,19:10,4.0,��쐼,9.7
2022/03/30,19:20,3.7,��쐼,9.3
2022/03/30,19:30,3.9,��쐼,9.2
2022/03/30,19:40,3.9,��쐼,9.7
2022/03/30,19:50,3.9,��쐼,8.4
2022/03/30,20:00,3.9,��쐼,8.0
2022/03/30,20:10,3.9,��,5.6
2022/03/30,20:20,4.0,��쐼,6.5
2022/03/30,20:30,3.9,��,6.8
2022/03/30,20:40,4.0,��,7.5
2022/03/30,20:50,3.7,��,7.2
2022/03/30,21:00,3.9,��,5.9
2022/03/30,21:10,3.9,��쐼,5.6
2022/03/30,21:20,3.9,��,5.6
2022/03/30,21:30,4.0,��쐼,5.2
2022/03/30,21:40,3.7,�쐼,4.3
2022/03/30,21:50,4.0,��쐼,5.4
2022/03/30,22:00,3.9,��쐼,4.5
2022/03/30,22:10,3.9,��쐼,3.9
2022/03/30,22:20,3.8,�쐼,4.7
2022/03/30,22:30,4.1,�쐼,4.5
2022/03/30,22:40,3.9,�쐼,4.2
2022/03/30,22:50,4.0,��쐼,4.7
2022/03/30,23:00,3.9,��쐼,5.8
2022/03/30,23:10,3.8,��쐼,5.7
2022/03/30,23:20,4.0,��쐼,5.4
2022/03/30,23:30,3.9,���k��,2.2
2022/03/30,23:40,4.0,�k�k��,3.6
2022/03/30,23:50,3.9,�k��,3.8
